Regional Weather Roundup
Issued by NWS Portland, ME

Home | Current Version | Previous Version | Text Only | Print | Product List | Glossary On
Versions: 1 2 3 4 5 6 7 8 9 10 11 12 13 14 15 16 17 18 19 20 21 22 23 24 25 26 27 28 29 30 31 32 33 34 35 36 37 38 39 40 41 42 43 44 45 46 47 48 49 50
000
ASUS41 KGYX 131305
RWRGYX
WEATHER ROUNDUP FOR MAINE AND NEW HAMPSHIRE
NATIONAL WEATHER SERVICE GRAY ME
800 AM EST WED DEC 13 2017

MEZ002-005-006-010-012-015-018-020-021-024-026-027-029-131400-
MAINE

CITY           SKY/WX    TMP DP  RH WIND       PRES   REMARKS
PORTLAND       MOCLDY    28  24  85 VRB6      29.13R
SANFORD        CLEAR     21  17  84 VRB6      29.15R
BAR HARBOR     CLOUDY    33  31  92 NW9G16    29.03R
WISCASSET      CLOUDY    26  21  81 CALM      29.13R
ROCKLAND       MOCLDY    30  27  88 W14       29.08R WCI  19
FRYEBURG       CLEAR     22  14  71 W6        29.09F
LEWISTONAUBURN CLEAR     22  17  81 NW9       29.11R
AUGUSTA        CLOUDY    24  19  81 NW6       29.10R
WATERVILLE     CLOUDY    22  18  85 VRB3      29.04F
BANGOR         CLOUDY    29  25  85 NW10G16   29.05R WCI  20
GREENVILLE       N/A     16  13  88 NW23G36   28.99F WCI  -2
MILLINOCKET    LGT SNOW  23  20  88 W15G24    29.02F FOG     WCI  10
HOULTON        LGT RAIN  35  35 100 W13       28.93S FOG
PRESQUE ISLE   LGT RAIN  33  33 100 NW5       28.93F
FRENCHVILLE    MIX PCPN  30  29  96 NE13      28.93F WCI  20
CARIBOU        LGT RAIN  34  33  96 NE5       28.91F
$$

NHZ002-005-008-009-011-012-014-131400-
NEW HAMPSHIRE

CITY           SKY/WX    TMP DP  RH WIND       PRES   REMARKS
PORTSMOUTH     PTCLDY    24  18  78 W5        29.17R
ROCHESTER      CLEAR     22  16  78 W9        29.14F
NASHUA         MOCLDY    20  14  77 W7        29.25F
MANCHESTER     CLOUDY    21  14  74 W6        29.22S
CONCORD        FLURRIES  21  15  78 W12       29.20F WCI   9
LACONIA        CLEAR     21  14  74 W10       29.17S WCI  10
PLYMOUTH       CLOUDY    21  14  74 W12       29.18F WCI   9
BERLIN         LGT SNOW  17  11  77 VRB5      29.15F
WHITEFIELD     CLOUDY    18  12  77 NW6       29.18F
JAFFREY        FLURRIES  16  11  80 W9        29.21F
KEENE          CLOUDY    17  11  77 CALM      29.28S
LEBANON        CLOUDY    20  12  71 W9        29.24S
MT WASHINGTON  FOG        0   0 100 NW29        N/A  VSB 1/8 WCI -26
$$

VTZ005-007-008-131400-
VERMONT

CITY           SKY/WX    TMP DP  RH WIND       PRES   REMARKS
ST JOHNSBURY     N/A     19  13  77 MISG      29.21S
MONTPELIER     MIX PCPN  14  11  87 NW20G26   29.24F FOG     WCI  -3
BURLINGTON     LGT SNOW  18  10  71 NW9       29.32F
$$

MAZ007-012-024-CTZ003-RIZ002-NYZ038-NYZ072-131400-
SOUTHERN NEW ENGLAND AND NY

CITY           SKY/WX    TMP DP  RH WIND       PRES   REMARKS
BOSTON         PTCLDY    22  11  62 W23G30    29.26S WCI   6
WORCESTER      CLOUDY    14   6  70 W16       29.25R WCI  -2
NANTUCKET      LGT SNOW  28  20  71 W22G33    29.29R WCI  14
PROVIDENCE     CLEAR     21   8  57 W17G32    29.35S WCI   7
HARTFORD       PTCLDY    18   7  62 W16G23    29.39R WCI   3
ALBANY         FLURRIES  17   7  64 W14G22    29.41S WCI   3
NEW YORK CITY  PTCLDY    22   7  52 W18G31    29.54R WCI   7
$$

ANZ081-ANZ082-ANZ150-NHZ014-MEZ023>029-131400-
COASTAL MARINE OBSERVATIONS

STATION/POSITION TIME  TEMP    WIND        PRES    WAVE
                       AIR SEA DIR/SP/G            HT/PER
                 (UTC) (F)     (DEG/KT/KT) (MB)    (FT/S)
MOUNT DESERT ROC 1200   38     250/ 21/ 23  982.7F
MATINICUS ROCK   1200   35     300/ 21/ 25  983.3R
ISLE OF SHOALS   1200   27     270/ 26/ 30  987.2F
JEFFREYS LEDGE   1236      48                N/A     6/ 5
GEORGES BANK BUO 1150   47 52               985.5    8/10
$$

.............KEY..............
   WCI - WIND CHILL
   TC  - TEMPERATURE IN CELSIUS
   VSB - VISIBILITY IN MILES
   HX  - HEAT INDEX
   FAIR- INDICATES FEW OR NO CLOUDS BELOW 12,000 FT, WITH NO
         SIGNIFICANT WEATHER AND/OR OBSTRUCTIONS TO VISIBILITY.






USA.gov is the U.S. government's official web portal to all federal, state and local government web resources and services.